Flag for Switzerland Weather past 2 weeks in Kreuzlingen, Thurgau, Switzerland

Now
41 °F

Passing clouds.


Feels Like: 39 °F
Forecast: 31 / 53 °F
Wind: 3 mph from East

Location: Konstanz


UV Index: 3 (Moderate)

Visibility: 19 mi


Pressure: 30.25 "Hg

Humidity: 64%

Dew point: 30 °F

Location of KreuzlingenLocation

Historic Weather in Kreuzlingen

°F

Kreuzlingen temperature yesterday

Maximum temperature yesterday: 53 °F (at 3:00 PM)
Minimum temperature yesterday: 36 °F (at 7:00 AM)
Average temperature yesterday: 46 °F

Past Weeks' High & Low Weather Summary

 TemperatureHumidityPressure
High70 °F (Apr 2, 4:00 PM)98% (Apr 7, 8:00 AM)30.37 "Hg (Apr 7, 8:00 AM)
Low36 °F (Apr 16, 7:00 AM)28% (Apr 2, 6:00 PM)29.63 "Hg (Apr 3, 5:00 PM)
Average53 °F64%30.04 "Hg
* Reported Apr 2 7:00 AM — Apr 17 7:00 AM, Kreuzlingen, Weather by CustomWeather, © 2014

Note: Actual official high and low records may vary slightly from our data, if they occured in-between our weather recording intervals... More about our weather records

Advertising

Historic Weather Conditions — Data for Previous 24 hours

 ConditionsComfort  
Time TempWeatherWind HumidityBarometerVisibility
7:00 AM
Apr 17
40 °FPassing clouds.5 mph67%30.27 "Hg16 mi
6:00 AM40 °FPassing clouds.3 mph65%30.28 "Hg16 mi
5:00 AM39 °FClear.2 mph70%30.29 "Hg19 mi
4:00 AM41 °FClear.2 mph62%30.30 "Hg22 mi
3:00 AM42 °FClear.3 mph60%30.31 "Hg22 mi
2:00 AM43 °FClear.3 mph61%30.32 "Hg25 mi
1:00 AM42 °FClear.3 mph64%30.33 "Hg28 mi
12:00 AM43 °FClear.5 mph62%30.34 "Hg28 mi
11:00 PM
Apr 16
44 °FClear.2 mph60%30.34 "Hg31 mi
10:00 PM45 °FClear.3 mph55%30.34 "Hg37 mi
9:00 PM46 °FClear.3 mph51%30.34 "Hg19 mi
8:00 PM49 °FPassing clouds.5 mph44%30.32 "Hg25 mi
7:00 PM52 °FPassing clouds.6 mph33%30.30 "Hg25 mi
6:00 PM53 °FPassing clouds.5 mph36%30.30 "Hg25 mi
5:00 PM53 °FScattered clouds.6 mph34%30.32 "Hg25 mi
4:00 PM52 °FScattered clouds.6 mph38%30.32 "Hg28 mi
3:00 PM53 °FPassing clouds.5 mph36%30.32 "Hg28 mi
2:00 PM53 °FPassing clouds.6 mph39%30.32 "Hg25 mi
1:00 PM52 °FPassing clouds.3 mph41%30.33 "Hg19 mi
12:00 PM50 °FPassing clouds.6 mph45%30.34 "Hg19 mi
11:00 AM47 °FPassing clouds.6 mph48%30.35 "Hg16 mi
10:00 AM45 °FPassing clouds.5 mph56%30.36 "Hg14 mi
9:00 AM42 °FPassing clouds.5 mph66%30.37 "Hg14 mi
8:00 AM38 °FPassing clouds.2 mph76%30.37 "Hg16 mi
Weather by CustomWeather, © 2014

See weather overview